Change the Weather History Date:

Tuesday, March 12, 2013

  Actual Average Record
Temperature  
Mean Temperature 41 °F 31 °F  
Max Temperature 50 °F 39 °F 71 °F (1990)
Min Temperature 32 °F 23 °F 1 °F (1984)
Degree Days  
Heating Degree Days 24 34  
Month to date heating degree days 406 426  
Since 1 July heating degree days 5290 5625  
Cooling Degree Days 0 0  
Month to date cooling degree days 0 0  
Year to date cooling degree days 0 0  
Moisture  
Dew Point 38 °F    
Average Humidity 87    
Maximum Humidity 93    
Minimum Humidity 80    
Precipitation  
Precipitation 0.70 in 0.09 in 0.98 in (2014)
Month to date precipitation 0.87 1.05  
Year to date precipitation 5.42 5.81  
Snow  
Snow T in 0.60 in 9.70 in (1959)
Month to date snowfall 3.4 7.3  
Since 1 July snowfall 57.2 71.2  
Snow Depth T in    
Sea Level Pressure  
Sea Level Pressure 29.79 in    
Wind  
Wind Speed 10 mph (WNW)    
Max Wind Speed 21 mph    
Max Gust Speed 35 mph    
Visibility 7 miles    
Events Fog , Rain    
T = Trace of Precipitation, MM = Missing Value Source: NWS Daily Summary

Daily Weather History Graph

Daily Weather History Graph

Search for Another Location

Airport or City:

Trip Planner

Search our weather history database for the weather conditions in past years. The results will help you decide how hot, cold, wet, or windy it might be!

Date:

Astronomy

Mar. 12, 2013 Rise Set
Actual Time 7:20 AM EDT 7:07 PM EDT
Civil Twilight 6:52 AM EDT 7:35 PM EDT
Nautical Twilight 6:20 AM EDT 8:07 PM EDT
Astronomical Twilight 5:47 AM EDT 8:40 PM EDT
Moon 7:24 AM EDT (3/12) 8:22 PM EDT (3/12)
Length of Visible Light 12h 42m
Length of Day
11h 46m
New Moon, 1% of the Moon is Illuminated
Mar 12
New Moon
Mar 19
First Quarter
Mar 27
Full
Apr 3
Last Quarter
Apr 10
New

Hourly Weather History & Observations

Time (EDT) Temp. Windchill Dew Point Humidity Pressure Visibility Wind Dir Wind Speed Gust Speed Precip Events Conditions
12:53 AM 48.9 °F - 42.1 °F 77% 29.84 in 10.0 mi South 17.3 mph 27.6 mph N/A   Overcast
1:53 AM 48.9 °F - 43.0 °F 80% 29.82 in 10.0 mi South 17.3 mph 33.4 mph 0.00 in   Overcast
2:39 AM 48.2 °F - 42.8 °F 82% 29.80 in 10.0 mi SSE 20.7 mph 31.1 mph N/A   Overcast
2:53 AM 48.9 °F - 43.0 °F 80% 29.81 in 10.0 mi SSE 17.3 mph 26.5 mph N/A   Overcast
3:37 AM 48.2 °F - 42.8 °F 82% 29.79 in 10.0 mi South 15.0 mph 23.0 mph N/A   Overcast
3:53 AM 48.9 °F - 44.1 °F 83% 29.80 in 10.0 mi South 15.0 mph 24.2 mph N/A   Overcast
4:44 AM 50.0 °F - 44.6 °F 82% 29.77 in 10.0 mi South 11.5 mph 23.0 mph N/A   Overcast
4:53 AM 48.9 °F - 44.1 °F 83% 29.78 in 10.0 mi South 11.5 mph 19.6 mph N/A   Overcast
5:20 AM 48.2 °F - 44.6 °F 87% 29.77 in 10.0 mi South 10.4 mph - 0.01 in Rain Light Rain
5:53 AM 48.0 °F - 45.0 °F 89% 29.77 in 9.0 mi South 11.5 mph 17.3 mph 0.03 in Rain Light Rain
6:23 AM 48.2 °F - 44.6 °F 87% 29.76 in 10.0 mi South 9.2 mph - 0.00 in Rain Light Rain
6:53 AM 48.0 °F - 45.0 °F 89% 29.77 in 10.0 mi SSE 9.2 mph 16.1 mph 0.01 in   Overcast
7:53 AM 48.0 °F - 46.0 °F 93% 29.77 in 4.0 mi South 9.2 mph - 0.01 in Rain Light Rain
8:06 AM 48.2 °F - 46.4 °F 93% 29.76 in 2.5 mi South 8.1 mph - 0.00 in Rain Light Rain
8:11 AM 48.2 °F - 46.4 °F 93% 29.76 in 2.0 mi South 8.1 mph - 0.01 in Rain Light Rain
8:53 AM 48.0 °F - 46.9 °F 96% 29.78 in 2.0 mi South 6.9 mph - 0.04 in Rain Light Rain
9:53 AM 48.0 °F - 46.9 °F 96% 29.76 in 1.0 mi SSE 6.9 mph - 0.04 in Rain Light Rain
10:26 AM 48.2 °F - 46.4 °F 93% 29.74 in 1.0 mi South 5.8 mph - 0.04 in Rain Rain
10:53 AM 48.9 °F - 46.9 °F 93% 29.75 in 1.0 mi South 4.6 mph - 0.13 in Rain Rain
11:22 AM 46.4 °F 41.1 °F 44.6 °F 93% 29.74 in 0.5 mi NW 11.5 mph - 0.08 in Rain Rain
11:29 AM 44.6 °F 39.7 °F 42.8 °F 93% 29.74 in 0.5 mi WNW 9.2 mph - 0.12 in Fog , Rain Heavy Rain
11:48 AM 41.0 °F 34.3 °F 39.2 °F 93% 29.74 in 1.0 mi NNW 11.5 mph - 0.17 in Rain Rain
11:53 AM 41.0 °F 34.7 °F 39.0 °F 93% 29.76 in 1.0 mi NNW 10.4 mph - 0.19 in Rain Rain
12:18 PM 39.2 °F 29.8 °F 37.4 °F 93% 29.74 in 2.0 mi North 18.4 mph 23.0 mph 0.05 in Rain Rain
12:21 PM 39.2 °F 30.2 °F 37.4 °F 93% 29.74 in 1.8 mi North 17.3 mph 23.0 mph 0.05 in Rain Rain
12:53 PM 37.9 °F 28.9 °F 35.1 °F 89% 29.76 in 2.5 mi NNW 16.1 mph - 0.11 in Rain Rain
1:10 PM 37.4 °F 29.3 °F 35.6 °F 93% 29.75 in 7.0 mi NNW 12.7 mph - 0.04 in Rain Rain
1:53 PM 36.0 °F 27.5 °F 34.0 °F 93% 29.77 in 7.0 mi North 12.7 mph - 0.10 in Rain Light Rain
2:53 PM 36.0 °F 30.3 °F 34.0 °F 93% 29.78 in 10.0 mi NNW 6.9 mph - 0.03 in Rain Light Rain
3:53 PM 36.0 °F 29.6 °F 34.0 °F 93% 29.78 in 6.0 mi NNW 8.1 mph - 0.01 in Rain Light Rain
4:47 PM 37.4 °F 32.8 °F 33.8 °F 87% 29.76 in 10.0 mi NW 5.8 mph - 0.00 in   Overcast
4:48 PM 37.0 °F 32.4 °F 34.0 °F 89% 29.78 in 10.0 mi NW 5.8 mph - 0.00 in   Overcast
5:13 PM 37.4 °F 32.8 °F 33.8 °F 87% 29.77 in 10.0 mi NNW 5.8 mph - N/A   Overcast
5:22 PM 37.4 °F 34.9 °F 33.8 °F 87% 29.77 in 10.0 mi NNW 3.5 mph - N/A   Overcast
5:53 PM 36.0 °F 31.1 °F 34.0 °F 93% 29.81 in 5.0 mi NNW 5.8 mph - N/A   Overcast
6:32 PM 35.6 °F 30.7 °F 33.8 °F 93% 29.80 in 10.0 mi NNW 5.8 mph - N/A   Overcast
6:53 PM 36.0 °F 29.6 °F 33.1 °F 89% 29.83 in 8.0 mi NNW 8.1 mph - 0.00 in Rain Light Rain
7:02 PM 35.6 °F 29.2 °F 33.8 °F 93% 29.80 in 9.0 mi NNW 8.1 mph - 0.00 in Rain Light Rain
7:53 PM 36.0 °F 27.5 °F 30.9 °F 82% 29.85 in 10.0 mi NNW 12.7 mph - 0.00 in   Overcast
8:49 PM 35.6 °F 29.9 °F 30.2 °F 81% 29.84 in 10.0 mi NNW 6.9 mph - N/A   Overcast
8:53 PM 35.1 °F 27.9 °F 30.9 °F 85% 29.87 in 10.0 mi NNW 9.2 mph - N/A   Overcast
9:09 PM 33.8 °F 25.8 °F 30.2 °F 87% 29.84 in 10.0 mi NNW 10.4 mph - N/A   Overcast
9:53 PM 34.0 °F 26.6 °F 28.9 °F 82% 29.88 in 10.0 mi NNW 9.2 mph - N/A   Overcast
10:07 PM 33.8 °F 28.6 °F 30.2 °F 87% 29.85 in 10.0 mi NNW 5.8 mph - N/A   Overcast
10:53 PM 33.1 °F 25.5 °F 28.9 °F 85% 29.88 in 10.0 mi NNW 9.2 mph - N/A   Overcast
11:04 PM 33.8 °F 27.7 °F 28.4 °F 81% 29.85 in 10.0 mi NNW 6.9 mph - N/A   Overcast
11:43 PM 33.8 °F - 28.4 °F 81% 29.86 in 10.0 mi Calm Calm - N/A   Overcast
11:53 PM 32.0 °F 28.7 °F 28.9 °F 88% 29.90 in 10.0 mi West 3.5 mph - N/A   Overcast